Wind_Speed
14 14 13 12 12 11 12 14 17 19 19 17 16 18 23 27 30 31 31 30 30 30 29 31 31 30 30 30 32 30 33 36 40 41 44 47 48 50 50 51 53 55 56 58 54 50 47
17 14 13 13 13 13 14 17 19 19 18 17 21 24 27 29 30 32 31 31 32 31 32 33 32 30 31 32 34 33 37 39 43 45 46 50 51 52 55 54 55 53 55 59 59 55 52
17 15 14 14 14 15 17 18 20 20 19 22 27 29 31 32 35 37 35 34 34 33 34 34 34 32 32 35 38 41 41 45 48 49 52 52 53 55 53 54 53 52 54 58 63 61 56
17 15 14 15 15 17 18 19 21 22 24 27 30 33 34 37 39 37 35 35 35 34 34 34 34 35 35 39 41 43 47 49 54 52 53 52 52 51 53 52 51 50 52 58 61 61 59
15 14 13 15 16 18 19 21 23 26 29 31 33 35 37 40 39 38 36 35 36 36 37 36 37 39 40 42 45 49 50 53 56 57 55 54 50 49 50 48 47 49 52 54 56 59 59
15 14 14 15 17 19 20 22 25 28 30 32 35 37 40 40 40 39 37 36 37 38 38 39 41 42 45 49 52 56 56 55 57 57 60 53 47 48 49 46 49 44 45 46 51 53 52
14 14 14 16 18 21 22 25 27 29 32 34 36 36 37 39 39 37 37 38 39 40 37 38 42 45 50 54 59 56 58 60 59 59 57 50 47 49 41 42 41 42 44 48 40 38 49
14 15 16 18 21 22 25 27 27 29 31 33 33 35 37 39 39 38 38 40 42 41 39 43 48 53 57 63 60 60 60 64 62 58 53 51 52 41 39 43 44 42 44 47 43 28 34
14 15 18 21 22 25 26 28 30 30 32 32 34 36 38 38 38 38 40 43 43 43 47 51 57 63 66 66 66 66 68 65 64 59 52 52 47 43 39 41 41 41 43 45 46 35 29
17 21 23 23 24 26 27 29 29 29 31 32 34 37 38 39 39 41 42 43 43 48 55 65 69 69 72 71 70 71 70 66 60 58 51 45 41 35 32 36 34 40 38 41 46 43 37
21 23 23 24 25 27 28 30 29 29 31 32 34 37 38 39 40 43 43 43 47 53 64 62 69 73 74 73 75 66 59 56 51 45 41 50 36 31 33 36 34 34 29 37 42 49 33
22 23 24 24 25 27 29 30 30 32 32 33 36 37 37 38 41 43 44 48 54 60 69 68 71 74 77 70 67 70 62 53 48 43 39 46 32 40 36 31 33 31 33 32 29 47 42
23 23 24 25 26 27 29 29 30 32 33 35 36 37 38 40 43 44 48 55 61 65 70 73 74 75 66 65 64 54 44 30 39 50 51 49 44 35 40 31 39 32 31 30 34 47 44
23 24 25 26 26 26 27 29 31 31 33 36 36 37 39 42 45 48 54 60 64 67 70 74 79 83 65 46 32 15 19 19 33 38 45 42 30 36 38 35 28 26 34 37 38 47 36
24 24 25 26 26 27 27 29 30 33 35 36 36 38 41 44 47 52 57 62 65 70 79 85 86 61 37 22 15 16 13 19 30 26 29 32 38 33 40 31 32 29 36 38 33 31 34
23 23 25 24 25 26 27 28 31 33 34 35 36 39 42 45 51 56 61 64 70 79 85 78 54 36 22 20 18 13 19 19 23 17 22 25 34 28 37 29 31 36 34 45 37 33 37
21 23 23 24 24 25 27 28 31 32 32 33 37 41 44 50 55 58 62 70 79 84 77 53 40 28 15 16 17 16 18 17 13 17 25 26 31 28 36 29 22 37 42 43 35 30 35
21 22 23 24 23 26 27 29 31 31 30 34 38 41 46 52 57 61 69 77 81 78 49 36 31 27 22 20 18 10 9 10 4 19 19 34 32 17 42 29 21 28 49 42 38 33 30
21 22 22 22 23 24 27 29 29 27 30 34 38 43 50 55 57 64 73 78 77 53 38 34 31 31 28 25 20 9 11 5 15 19 15 17 27 24 22 35 27 34 44 39 34 32 35
21 22 20 20 21 24 26 27 24 25 30 34 39 45 50 54 61 68 73 78 64 37 34 32 30 30 29 22 13 7 18 14 24 14 16 25 24 23 31 31 25 23 41 30 27 29 34
20 20 18 18 20 23 25 24 21 25 29 34 40 46 52 57 63 68 73 76 48 38 35 35 30 27 26 16 11 3 27 26 15 13 19 27 24 26 26 37 32 27 50 35 26 32 28
19 17 16 18 21 23 24 20 20 25 30 36 42 48 51 57 62 67 73 66 39 39 35 38 31 33 34 13 18 25 28 20 12 14 20 26 26 25 34 30 26 27 41 37 40 27 34
19 14 16 17 20 21 21 17 20 26 31 37 42 49 53 57 61 67 72 61 34 36 36 35 42 32 18 38 35 33 29 22 12 16 27 29 25 28 31 28 19 22 35 33 38 39 26
15 13 15 17 19 20 18 16 20 26 32 37 42 48 52 55 59 66 68 50 31 35 32 40 31 32 23 31 28 30 27 21 13 13 24 26 26 33 27 25 27 27 35 42 38 36 29
12 14 13 16 18 18 14 15 20 26 32 36 42 49 50 52 58 63 64 41 26 27 26 23 28 31 20 24 23 24 31 25 14 16 22 24 27 27 23 14 32 34 27 49 45 36 25
13 12 14 15 16 13 11 15 20 26 31 35 42 47 48 51 56 61 61 43 22 28 29 19 21 17 14 17 17 21 27 25 15 10 17 19 22 19 16 23 21 26 38 29 34 28 20
13 12 13 14 13 10 11 15 20 26 30 35 40 45 45 48 52 57 57 47 28 25 24 21 21 16 17 18 14 19 23 21 12 7 12 13 12 12 12 24 23 32 34 33 31 31 29
13 12 12 12 10 8 11 14 20 25 28 33 38 42 43 45 49 54 56 40 21 18 17 24 18 15 13 9 14 17 19 20 13 11 8 10 12 7 13 27 28 31 31 31 29 26 29
12 11 10 10 6 7 11 14 19 23 27 32 36 39 40 40 46 49 51 49 25 17 20 17 20 19 16 15 14 18 23 21 13 12 10 11 10 3 16 21 26 25 24 28 30 31 27
Wind_Direction
289 287 280 276 276 277 275 274 273 273 276 284 292 295 300 302 301 299 297 294 291 290 289 289 289 285 282 287 287 293 294 297 296 298 298 297 295 294 290 285 271 265 256 252 250 245 245
289 286 281 273 274 277 275 275 276 279 285 286 292 297 302 305 303 302 298 293 289 289 289 288 286 282 283 285 289 289 294 294 296 301 301 301 300 302 295 289 277 263 254 249 245 244 239
289 282 277 275 274 275 275 278 280 281 283 290 295 298 301 302 301 300 297 291 289 288 288 287 284 282 284 288 293 295 296 297 298 301 303 302 302 304 299 288 277 266 252 245 241 239 238
282 276 276 276 276 273 276 280 284 285 285 291 295 298 298 299 302 300 293 289 288 289 292 289 285 285 289 290 294 296 300 299 298 299 301 300 302 304 293 280 268 259 249 242 238 238 234
273 270 273 275 276 277 282 288 289 287 288 291 293 295 298 301 301 300 294 292 293 295 296 288 286 289 290 292 295 298 299 299 299 301 300 299 299 293 281 268 261 251 249 244 240 235 234
269 272 276 280 283 285 290 292 290 288 289 292 295 297 300 304 302 300 295 295 295 296 295 291 290 293 295 298 299 300 301 299 299 298 298 297 287 282 274 263 258 258 254 250 248 234 232
270 278 284 286 285 290 296 295 295 295 298 300 300 303 305 305 303 299 299 299 298 297 294 291 292 293 297 300 303 302 302 298 297 295 295 285 275 281 268 260 257 248 242 241 242 239 239
278 282 288 290 292 294 293 296 301 304 305 305 306 306 307 306 303 302 302 301 303 302 298 298 299 298 300 302 302 304 300 297 294 292 285 274 276 271 259 255 254 248 241 237 230 222 221
278 285 289 292 294 294 297 304 305 306 310 309 307 309 309 306 305 305 306 308 307 305 303 302 299 301 304 302 304 302 298 298 293 286 277 267 269 257 249 251 249 246 243 236 234 207 224
286 291 289 291 294 301 305 307 311 314 313 311 313 312 309 309 310 309 311 311 310 311 311 310 309 307 306 306 303 300 299 292 279 276 271 261 256 249 237 250 250 242 243 237 228 195 208
289 286 288 291 298 308 308 311 317 319 319 318 315 313 312 313 313 316 317 315 314 312 315 313 312 310 309 305 302 299 290 273 267 260 244 246 234 226 238 229 238 244 251 234 226 190 197
294 292 289 294 300 308 309 314 320 321 321 320 316 315 316 315 317 319 319 316 315 316 316 315 313 312 308 304 292 290 278 258 251 242 236 224 232 218 231 222 237 238 239 244 218 188 209
291 295 296 299 305 308 314 317 323 324 322 319 319 319 318 319 322 322 320 319 320 319 318 315 314 314 308 296 285 283 274 249 241 237 234 238 247 227 217 225 221 225 221 226 205 206 209
295 298 296 300 306 312 317 322 325 323 322 323 322 321 321 323 326 326 323 322 321 321 319 320 321 315 313 308 298 286 235 220 222 229 237 239 233 222 207 218 223 226 221 212 207 202 198
292 298 301 306 309 315 320 325 325 324 325 324 324 325 328 329 328 327 325 324 325 327 327 325 321 319 316 320 305 284 208 224 234 224 242 244 229 213 203 201 216 216 220 197 199 192 201
292 300 304 308 314 318 324 324 324 326 325 326 327 330 330 330 329 329 329 329 333 333 329 327 331 330 324 331 337 279 187 220 250 247 232 218 219 198 197 194 202 223 204 186 181 189 201
289 295 305 310 315 320 323 325 327 326 328 329 332 334 333 333 333 333 334 339 339 333 332 338 346 352 338 340 347 338 199 211 267 241 230 213 203 190 171 183 208 189 187 188 178 174 188
290 298 304 310 316 324 324 328 326 329 331 333 337 337 334 337 338 340 345 345 339 337 343 350 351 358 348 342 332 326 240 258 203 189 202 208 209 186 156 158 192 220 176 179 187 161 185
288 299 302 312 323 323 326 327 328 333 335 338 338 337 341 342 343 348 350 345 341 344 353 354 349 342 342 338 331 256 254 169 166 163 206 189 174 149 155 169 179 197 176 165 163 177 192
285 295 301 314 322 323 326 326 333 337 339 339 339 345 343 347 350 355 352 346 346 354 357 1 346 335 331 333 333 286 188 174 161 180 165 172 162 160 161 171 171 177 180 177 175 178 182
284 293 307 316 323 323 325 330 337 340 339 341 345 346 349 352 356 358 354 348 355 358 5 354 353 359 356 354 350 308 179 148 101 143 162 160 156 162 163 168 177 178 175 175 180 185 191
283 293 309 317 322 325 328 334 340 338 344 345 350 352 353 357 0 360 356 353 4 9 14 28 26 9 1 16 117 146 127 72 62 156 155 165 157 158 164 168 174 186 172 187 185 190 184
279 296 306 318 321 329 331 336 340 341 345 345 350 354 357 0 3 2 356 357 16 26 42 27 28 33 48 109 114 93 63 58 104 142 158 160 158 157 165 163 187 199 178 183 188 193 216
270 292 304 316 323 332 332 340 339 348 344 349 355 358 360 4 6 5 359 3 28 34 58 49 45 51 87 119 89 63 64 71 105 146 158 151 168 171 146 189 183 165 172 190 200 180 173
267 285 305 315 327 331 334 337 342 348 344 353 360 2 3 7 9 8 4 14 35 38 51 59 67 69 79 81 69 65 63 65 94 148 150 158 166 178 204 187 167 175 160 188 204 209 212
262 283 302 314 327 327 334 334 346 345 347 356 2 3 5 10 12 12 8 16 47 52 52 63 84 68 74 50 54 70 57 55 80 147 163 173 163 191 179 182 166 181 179 184 198 211 209
261 279 298 315 323 326 331 337 345 343 349 359 3 5 8 12 15 17 12 16 39 45 60 64 77 44 26 39 42 44 58 56 101 94 189 189 190 154 210 212 182 177 186 188 189 195 198
256 278 300 314 315 329 325 339 344 342 352 0 5 7 12 14 17 19 17 22 42 45 41 69 52 56 41 26 42 51 54 63 88 104 152 192 174 49 201 176 184 186 192 201 199 193 199
255 277 296 304 305 323 322 345 340 342 356 3 6 8 14 15 19 23 20 24 36 59 66 76 71 66 68 65 64 62 62 64 76 97 111 171 201 222 184 173 166 182 187 197 204 205 197
Height
5774 5774 5773 5773 5773 5772 5772 5772 5772 5771 5770 5769 5768 5766 5765 5763 5760 5758 5756 5754 5751 5749 5746 5742 5740 5738 5737 5736 5734 5733 5731 5729 5727 5726 5724 5723 5722 5720 5721 5720 5719 5723 5724 5726 5731 5739 5743
5771 5770 5770 5770 5770 5770 5769 5768 5768 5767 5767 5765 5763 5761 5759 5757 5754 5751 5749 5746 5743 5740 5738 5735 5732 5730 5729 5727 5725 5725 5721 5719 5716 5714 5712 5710 5708 5706 5704 5704 5704 5708 5708 5712 5718 5725 5733
5768 5767 5767 5767 5766 5766 5766 5765 5764 5763 5762 5761 5759 5756 5753 5750 5747 5743 5740 5737 5735 5732 5729 5726 5723 5721 5720 5717 5714 5711 5711 5706 5703 5700 5698 5696 5694 5691 5689 5687 5688 5689 5690 5696 5701 5711 5720
5764 5764 5764 5764 5763 5763 5762 5761 5760 5759 5757 5755 5752 5749 5746 5742 5738 5734 5731 5728 5725 5722 5719 5716 5713 5711 5710 5707 5704 5700 5696 5693 5689 5687 5685 5683 5680 5678 5674 5672 5671 5672 5675 5676 5689 5698 5707
5761 5761 5760 5760 5760 5759 5758 5758 5756 5754 5751 5749 5746 5742 5739 5735 5730 5727 5723 5720 5716 5714 5710 5706 5703 5700 5698 5696 5693 5689 5684 5679 5673 5669 5670 5668 5666 5664 5660 5659 5659 5660 5659 5665 5675 5685 5692
5758 5758 5757 5756 5756 5755 5755 5753 5751 5748 5746 5742 5739 5735 5731 5727 5722 5718 5714 5711 5707 5704 5700 5695 5691 5690 5685 5682 5677 5672 5667 5662 5658 5653 5649 5652 5649 5647 5645 5645 5646 5654 5654 5659 5663 5674 5679
5755 5755 5754 5754 5753 5752 5750 5748 5746 5743 5739 5736 5732 5728 5724 5720 5715 5710 5706 5701 5699 5695 5691 5685 5680 5678 5672 5668 5663 5656 5650 5644 5642 5639 5636 5632 5632 5632 5634 5634 5637 5639 5641 5644 5653 5664 5672
5752 5752 5751 5750 5749 5747 5745 5743 5740 5737 5733 5729 5725 5721 5717 5712 5707 5702 5698 5692 5687 5682 5680 5673 5668 5663 5658 5652 5647 5640 5630 5624 5621 5620 5618 5615 5612 5620 5620 5621 5623 5627 5631 5635 5644 5655 5663
5748 5748 5747 5746 5745 5742 5740 5738 5735 5731 5727 5723 5719 5715 5709 5704 5700 5694 5689 5682 5676 5671 5665 5660 5652 5647 5639 5633 5628 5620 5611 5603 5597 5597 5598 5596 5604 5601 5605 5608 5610 5615 5620 5627 5633 5646 5654
5745 5744 5743 5742 5740 5738 5735 5733 5729 5725 5721 5717 5712 5707 5702 5697 5693 5685 5680 5672 5666 5658 5650 5640 5633 5626 5615 5612 5608 5596 5591 5585 5578 5572 5578 5579 5586 5588 5593 5596 5600 5604 5612 5616 5623 5635 5640
5741 5740 5738 5737 5735 5733 5730 5727 5724 5719 5715 5711 5706 5701 5695 5689 5684 5677 5670 5663 5655 5648 5638 5628 5609 5603 5596 5587 5578 5586 5571 5560 5554 5558 5564 5563 5572 5576 5583 5589 5595 5597 5601 5605 5613 5623 5634
5736 5735 5734 5732 5730 5728 5726 5722 5718 5714 5710 5705 5700 5695 5689 5682 5676 5669 5661 5653 5645 5636 5623 5608 5601 5584 5571 5559 5546 5537 5538 5542 5538 5543 5542 5547 5556 5564 5569 5577 5585 5591 5595 5597 5604 5614 5618
5732 5731 5729 5728 5726 5723 5720 5717 5713 5709 5704 5700 5694 5688 5682 5675 5668 5660 5652 5643 5632 5620 5608 5592 5576 5561 5546 5531 5514 5512 5511 5515 5520 5522 5528 5538 5545 5554 5562 5568 5574 5580 5585 5589 5596 5600 5607
5728 5726 5725 5723 5721 5718 5715 5712 5708 5704 5699 5694 5688 5681 5676 5668 5660 5651 5642 5632 5621 5606 5590 5574 5552 5534 5516 5504 5498 5499 5500 5505 5509 5510 5516 5524 5529 5537 5550 5555 5565 5571 5578 5581 5588 5597 5608
5723 5722 5721 5719 5716 5714 5711 5707 5703 5699 5693 5688 5682 5675 5669 5661 5653 5643 5634 5620 5606 5590 5569 5548 5532 5512 5501 5496 5492 5491 5495 5499 5498 5503 5510 5512 5518 5528 5537 5547 5557 5565 5567 5580 5591 5602 5611
5719 5718 5717 5715 5712 5710 5707 5703 5698 5693 5688 5682 5677 5670 5663 5655 5645 5635 5622 5608 5590 5567 5547 5526 5510 5501 5494 5490 5488 5485 5487 5490 5491 5495 5501 5505 5511 5524 5531 5541 5548 5552 5565 5573 5583 5594 5606
5715 5714 5713 5710 5709 5706 5702 5698 5693 5688 5683 5677 5671 5664 5656 5647 5637 5625 5612 5593 5570 5550 5530 5514 5504 5496 5492 5489 5486 5484 5484 5484 5486 5490 5496 5501 5507 5519 5528 5537 5543 5550 5556 5564 5582 5589 5605
5711 5710 5708 5707 5705 5701 5698 5693 5688 5683 5679 5674 5667 5660 5652 5641 5629 5613 5596 5576 5558 5535 5519 5511 5501 5495 5491 5487 5485 5483 5483 5483 5485 5488 5495 5500 5507 5516 5525 5535 5546 5552 5561 5565 5574 5588 5605
5707 5706 5704 5703 5701 5698 5694 5688 5684 5680 5676 5671 5664 5655 5644 5633 5620 5604 5584 5567 5545 5527 5516 5507 5500 5495 5490 5485 5482 5479 5481 5485 5485 5490 5496 5501 5512 5520 5530 5539 5544 5551 5562 5572 5579 5587 5592
5703 5702 5701 5700 5697 5694 5690 5685 5681 5677 5673 5668 5660 5650 5641 5627 5612 5595 5578 5560 5541 5527 5516 5508 5500 5493 5487 5483 5480 5479 5482 5487 5489 5494 5497 5505 5513 5522 5528 5536 5543 5550 5559 5571 5581 5588 5596
5699 5698 5697 5695 5693 5690 5686 5682 5678 5675 5670 5664 5656 5647 5635 5621 5606 5591 5573 5554 5536 5524 5515 5506 5498 5491 5485 5481 5480 5480 5488 5492 5497 5499 5503 5510 5517 5524 5530 5537 5543 5551 5556 5562 5579 5583 5592
5694 5694 5694 5692 5689 5686 5683 5679 5676 5673 5668 5662 5652 5643 5632 5617 5604 5589 5571 5552 5537 5527 5517 5507 5500 5493 5489 5483 5483 5486 5493 5501 5502 5504 5508 5514 5521 5527 5534 5542 5546 5549 5560 5563 5570 5576 5583
5691 5690 5690 5689 5686 5683 5680 5677 5675 5671 5665 5659 5651 5641 5629 5617 5603 5588 5571 5552 5540 5532 5523 5514 5508 5499 5496 5496 5497 5502 5506 5507 5508 5510 5514 5519 5526 5532 5543 5547 5553 5557 5563 5568 5574 5578 5575
5686 5687 5686 5685 5683 5680 5677 5675 5673 5668 5664 5657 5650 5640 5628 5616 5605 5589 5573 5554 5545 5537 5530 5524 5520 5515 5511 5507 5512 5512 5514 5513 5513 5515 5520 5526 5529 5533 5539 5543 5549 5555 5562 5568 5570 5577 5583
5683 5684 5683 5681 5680 5678 5675 5673 5671 5666 5663 5656 5648 5638 5628 5617 5605 5592 5576 5557 5551 5545 5538 5533 5529 5526 5525 5523 5521 5520 5519 5520 5520 5522 5527 5531 5535 5539 5542 5546 5554 5560 5565 5570 5571 5578 5584
5680 5680 5680 5679 5677 5675 5673 5672 5669 5665 5661 5655 5646 5638 5628 5618 5607 5593 5581 5566 5558 5552 5546 5541 5537 5538 5535 5532 5531 5530 5526 5527 5528 5530 5533 5536 5540 5543 5548 5549 5556 5563 5567 5571 5576 5581 5587
5676 5677 5676 5676 5674 5673 5672 5670 5667 5664 5660 5653 5646 5637 5629 5619 5609 5598 5588 5570 5561 5558 5554 5553 5545 5546 5545 5542 5541 5538 5535 5535 5535 5537 5540 5543 5548 5551 5551 5555 5559 5562 5569 5575 5581 5588 5589
5673 5674 5673 5673 5672 5671 5670 5668 5665 5663 5658 5653 5645 5637 5630 5621 5611 5600 5589 5574 5568 5565 5562 5557 5559 5554 5552 5550 5549 5546 5544 5541 5542 5544 5545 5548 5551 5554 5555 5556 5562 5566 5571 5577 5584 5588 5592
5670 5670 5670 5670 5669 5669 5669 5666 5664 5662 5657 5651 5645 5638 5631 5625 5615 5605 5598 5585 5575 5571 5567 5566 5563 5562 5559 5557 5556 5554 5551 5550 5550 5549 5551 5554 5557 5558 5562 5562 5564 5569 5574 5578 5583 5589 5593